• In Österreich
  • Länderverzeichnis
  • Für 7 Tage
  • Wassertemperatur
  • Satellitenkarten
  • Wetterkarte
  • News
  • Widgets
  • user-avatar
    Anmelden

    Stündliche Wetter Kaprun

    Heute, 21 Mai, Montag

    Zeit Temperatur Niederschläge Wind Luftdruck Luftfeuchtigkeit
    00:00 +1°C° 0 mm 2 m/S 596 mmHg 95%
    01:00 +1°C° 0 mm 2 m/S 597 mmHg 96%
    02:00 +1°C° 0 mm 2 m/S 596 mmHg 96%
    03:00 +1°C° 0 mm 2 m/S 596 mmHg 96%
    04:00 -1°C° 0 mm 2 m/S 596 mmHg 96%
    05:00 +2°C° 0 mm 2 m/S 596 mmHg 94%
    06:00 +3°C° 0 mm 2 m/S 597 mmHg 91%
    07:00 +5°C° 0 mm 2 m/S 597 mmHg 87%
    08:00 +7°C° 0,1 mm 2 m/S 598 mmHg 81%
    09:00 +8°C° 0,1 mm 2 m/S 599 mmHg 74%
    10:00 +11°C° 0,1 mm 1 m/S 599 mmHg 67%
    11:00 +12°C° 0,4 mm 2 m/S 599 mmHg 65%
    12:00 +12°C° 0,4 mm 2 m/S 599 mmHg 63%
    13:00 +13°C° 0,4 mm 2 m/S 599 mmHg 60%
    14:00 +12°C° 0,5 mm 2 m/S 599 mmHg 61%
    15:00 +12°C° 0,5 mm 2 m/S 598 mmHg 62%
    16:00 +12°C° 0,5 mm 2 m/S 598 mmHg 64%
    17:00 +10°C° 0,5 mm 2 m/S 597 mmHg 71%
    18:00 +8°C° 0,5 mm 2 m/S 597 mmHg 79%
    19:00 +8°C° 0,5 mm 1 m/S 596 mmHg 87%
    20:00 +6°C° 0,3 mm 2 m/S 596 mmHg 89%
    21:00 +4°C° 0,3 mm 2 m/S 595 mmHg 92%
    22:00 +3°C° 0,3 mm 2 m/S 595 mmHg 94%
    23:00 +3°C° 0 mm 2 m/S 595 mmHg 94%

    Morgen, 22 Mai, Dienstag

    Zeit Temperatur Niederschläge Wind Luftdruck Luftfeuchtigkeit
    00:00 +3°C° 0 mm 2 m/S 595 mmHg 95%
    01:00 +2°C° 0 mm 2 m/S 594 mmHg 95%
    02:00 +2°C° 0 mm 2 m/S 594 mmHg 95%
    03:00 +2°C° 0 mm 2 m/S 594 mmHg 95%
    04:00 +1°C° 0 mm 2 m/S 594 mmHg 94%
    05:00 +4°C° 0 mm 1 m/S 594 mmHg 91%
    06:00 +5°C° 0 mm 1 m/S 595 mmHg 87%
    07:00 +6°C° 0 mm 1 m/S 596 mmHg 84%
    08:00 +8°C° 0 mm 1 m/S 596 mmHg 77%
    09:00 +9°C° 0 mm 1 m/S 597 mmHg 70%
    10:00 +11°C° 0 mm 1 m/S 598 mmHg 64%
    11:00 +11°C° 0,1 mm 1 m/S 598 mmHg 61%
    12:00 +12°C° 0,1 mm 1 m/S 598 mmHg 59%
    13:00 +12°C° 0,1 mm 1 m/S 598 mmHg 56%
    14:00 +12°C° 0,1 mm 2 m/S 598 mmHg 57%
    15:00 +12°C° 0,1 mm 2 m/S 598 mmHg 57%
    16:00 +13°C° 0,1 mm 2 m/S 598 mmHg 57%
    17:00 +10°C° 0,4 mm 2 m/S 597 mmHg 66%
    18:00 +10°C° 0,4 mm 1 m/S 597 mmHg 76%
    19:00 +8°C° 0,4 mm 1 m/S 596 mmHg 85%
    20:00 +7°C° 0,2 mm 1 m/S 596 mmHg 88%
    21:00 +6°C° 0,2 mm 1 m/S 596 mmHg 91%
    22:00 +4°C° 0,2 mm 1 m/S 596 mmHg 94%
    23:00 +4°C° 0,1 mm 1 m/S 596 mmHg 95%

    übermorgen, 23 Mai, Mittwoch

    Zeit Temperatur Niederschläge Wind Luftdruck Luftfeuchtigkeit
    00:00 +4°C° 0,1 mm 1 m/S 596 mmHg 95%
    01:00 +3°C° 0,1 mm 1 m/S 596 mmHg 95%
    02:00 +3°C° 0,1 mm 1 m/S 596 mmHg 95%
    03:00 +3°C° 0,1 mm 1 m/S 596 mmHg 94%
    04:00 +3°C° 0,1 mm 1 m/S 596 mmHg 94%
    05:00 +5°C° 0,1 mm 1 m/S 597 mmHg 89%
    06:00 +6°C° 0,1 mm 1 m/S 598 mmHg 85%
    07:00 +7°C° 0,1 mm 0 m/S 599 mmHg 80%
    08:00 +10°C° 0,2 mm 1 m/S 599 mmHg 74%
    09:00 +11°C° 0,2 mm 1 m/S 600 mmHg 69%
    10:00 +13°C° 0,2 mm 1 m/S 601 mmHg 64%
    11:00 +13°C° 1 mm 1 m/S 601 mmHg 66%
    12:00 +13°C° 1 mm 1 m/S 601 mmHg 68%
    13:00 +13°C° 1 mm 1 m/S 600 mmHg 70%
    14:00 +13°C° 1,4 mm 1 m/S 600 mmHg 73%
    15:00 +12°C° 1,4 mm 1 m/S 600 mmHg 75%
    16:00 +12°C° 1,4 mm 1 m/S 600 mmHg 78%
    17:00 +11°C° 0,9 mm 1 m/S 599 mmHg 83%
    18:00 +10°C° 0,9 mm 1 m/S 599 mmHg 87%
    19:00 +8°C° 0,9 mm 0 m/S 599 mmHg 92%
    20:00 +8°C° 0,5 mm 1 m/S 599 mmHg 93%
    21:00 +7°C° 0,5 mm 1 m/S 599 mmHg 94%
    22:00 +6°C° 0,5 mm 1 m/S 599 mmHg 95%
    23:00 +6°C° 0,1 mm 1 m/S 598 mmHg 94%

    24 Mai, Donnerstag

    Zeit Temperatur Niederschläge Wind Luftdruck Luftfeuchtigkeit
    00:00 +5°C° 0,1 mm 1 m/S 598 mmHg 94%
    01:00 +5°C° 0,1 mm 1 m/S 598 mmHg 94%
    02:00 +4°C° 0 mm 1 m/S 598 mmHg 94%
    03:00 +4°C° 0 mm 1 m/S 598 mmHg 93%
    04:00 +4°C° 0 mm 1 m/S 598 mmHg 93%
    05:00 +6°C° 0 mm 1 m/S 598 mmHg 89%
    06:00 +7°C° 0 mm 1 m/S 599 mmHg 86%
    07:00 +8°C° 0 mm 0 m/S 600 mmHg 82%
    08:00 +11°C° 0,1 mm 1 m/S 601 mmHg 73%
    09:00 +12°C° 0,1 mm 1 m/S 602 mmHg 63%
    10:00 +14°C° 0,1 mm 1 m/S 602 mmHg 53%
    11:00 +15°C° 0,3 mm 2 m/S 602 mmHg 52%
    12:00 +15°C° 0,3 mm 2 m/S 602 mmHg 51%
    13:00 +16°C° 0,3 mm 2 m/S 602 mmHg 49%
    14:00 +15°C° 1,1 mm 2 m/S 602 mmHg 55%
    15:00 +15°C° 1,1 mm 2 m/S 601 mmHg 61%
    16:00 +14°C° 1,1 mm 2 m/S 601 mmHg 67%
    17:00 +13°C° 1 mm 1 m/S 601 mmHg 73%
    18:00 +12°C° 1 mm 1 m/S 600 mmHg 80%
    19:00 +10°C° 1 mm 1 m/S 600 mmHg 86%
    20:00 +9°C° 0,3 mm 1 m/S 599 mmHg 89%
    21:00 +8°C° 0,3 mm 1 m/S 599 mmHg 91%
    22:00 +6°C° 0,3 mm 1 m/S 599 mmHg 93%
    23:00 +6°C° 0,2 mm 1 m/S 599 mmHg 93%

    25 Mai, Freitag

    Zeit Temperatur Niederschläge Wind Luftdruck Luftfeuchtigkeit
    00:00 +6°C° 0,2 mm 1 m/S 598 mmHg 93%
    01:00 +5°C° 0,2 mm 1 m/S 598 mmHg 93%
    02:00 +5°C° 0 mm 1 m/S 598 mmHg 93%
    03:00 +5°C° 0 mm 1 m/S 598 mmHg 93%
    04:00 +5°C° 0 mm 1 m/S 598 mmHg 92%
    05:00 +7°C° 0 mm 1 m/S 599 mmHg 88%
    06:00 +8°C° 0 mm 1 m/S 600 mmHg 84%
    07:00 +10°C° 0 mm 1 m/S 601 mmHg 81%
    08:00 +12°C° 0,1 mm 1 m/S 602 mmHg 72%
    09:00 +14°C° 0,1 mm 1 m/S 602 mmHg 64%
    10:00 +16°C° 0,1 mm 1 m/S 603 mmHg 56%
    11:00 +16°C° 0,6 mm 1 m/S 603 mmHg 57%
    12:00 +16°C° 0,6 mm 1 m/S 603 mmHg 57%
    13:00 +16°C° 0,6 mm 1 m/S 603 mmHg 57%
    14:00 +16°C° 1,4 mm 1 m/S 603 mmHg 62%
    15:00 +15°C° 1,4 mm 1 m/S 602 mmHg 66%
    16:00 +15°C° 1,4 mm 1 m/S 602 mmHg 71%
    17:00 +13°C° 1,2 mm 1 m/S 602 mmHg 76%
    18:00 +12°C° 1,2 mm 1 m/S 601 mmHg 82%
    19:00 +10°C° 1,2 mm 0 m/S 601 mmHg 88%
    20:00 +10°C° 0,7 mm 1 m/S 601 mmHg 89%
    21:00 +9°C° 0,7 mm 1 m/S 601 mmHg 90%
    22:00 +9°C° 0,7 mm 1 m/S 601 mmHg 91%
    23:00 +8°C° 0,3 mm 1 m/S 601 mmHg 91%

    26 Mai, Samstag

    Zeit Temperatur Niederschläge Wind Luftdruck Luftfeuchtigkeit
    00:00 +8°C° 0,3 mm 1 m/S 601 mmHg 90%
    01:00 +8°C° 0,3 mm 1 m/S 601 mmHg 90%
    02:00 +7°C° 0 mm 1 m/S 601 mmHg 90%
    03:00 +7°C° 0 mm 1 m/S 601 mmHg 89%
    04:00 +7°C° 0 mm 1 m/S 600 mmHg 89%
    05:00 +8°C° 0 mm 1 m/S 601 mmHg 85%
    06:00 +10°C° 0 mm 1 m/S 602 mmHg 81%
    07:00 +12°C° 0 mm 1 m/S 603 mmHg 77%
    08:00 +13°C° 0,1 mm 0 m/S 604 mmHg 67%
    09:00 +15°C° 0,1 mm 0 m/S 605 mmHg 56%
    10:00 +17°C° 0,1 mm 0 m/S 606 mmHg 46%
    11:00 +20°C° 0,4 mm 1 m/S 606 mmHg 46%
    12:00 +20°C° 0,4 mm 1 m/S 606 mmHg 46%
    13:00 +20°C° 0,4 mm 1 m/S 606 mmHg 45%
    14:00 +20°C° 0,9 mm 1 m/S 606 mmHg 49%
    15:00 +19°C° 0,9 mm 1 m/S 605 mmHg 52%
    16:00 +19°C° 0,9 mm 1 m/S 605 mmHg 55%
    17:00 +16°C° 0,9 mm 1 m/S 604 mmHg 64%
    18:00 +15°C° 0,9 mm 1 m/S 604 mmHg 72%
    19:00 +13°C° 0,9 mm 1 m/S 603 mmHg 81%
    20:00 +12°C° 0,4 mm 1 m/S 603 mmHg 82%
    21:00 +11°C° 0,4 mm 1 m/S 603 mmHg 84%
    22:00 +10°C° 0,4 mm 1 m/S 603 mmHg 85%
    23:00 +10°C° 0 mm 1 m/S 603 mmHg 85%
    Mehr zeigen